Location: Plum
(40.5000°N, 79.7500°W)
Time: 14:21:55
(UTC-04:00)

MOZ.5/SAFIR/RUBIN 5/SL-8 - Visible Passes

Search period start: 28 July 2016 00:00
Search period end: 07 August 2016 00:00
Orbit: 678 x 707 km, 97.9° (Epoch: 27 July)

Date Brightness Start Highest point End Pass type
(mag) Time Alt. Az. Time Alt. Az. Time Alt. Az.
28 Jul 6.0 04:02:54 10° ESE 04:06:42 25° ENE 04:10:30 10° NNE visible
28 Jul 4.5 05:39:52 10° SSW 05:44:07 33° W 05:48:21 10° NNW visible
29 Jul 4.3 04:41:37 10° SSE 04:46:15 62° ENE 04:50:53 10° N visible
30 Jul 6.6 03:45:50 10° ESE 03:48:50 17° ENE 03:51:51 10° NNE visible
30 Jul 4.0 05:21:27 10° S 05:26:00 51° W 05:30:35 10° NNW visible
31 Jul 5.1 04:23:54 10° SE 04:28:17 40° ENE 04:32:39 10° N visible
01 Aug 6.8 03:29:30 10° E 03:31:01 11° ENE 03:32:33 10° NE visible
01 Aug 3.7 05:03:15 10° S 05:07:57 78° WSW 05:12:38 10° NNW visible
02 Aug 5.8 04:06:26 10° SE 04:10:21 27° ENE 04:14:17 10° NNE visible
02 Aug 4.6 05:43:44 10° SSW 05:47:50 30° W 05:51:56 10° NW visible
03 Aug 4.1 04:45:16 10° SSE 04:49:55 69° ENE 04:54:34 10° N visible
04 Aug 6.4 03:49:16 10° ESE 03:52:28 19° ENE 03:55:41 10° NNE visible
04 Aug 4.1 05:25:14 10° S 05:29:42 45° W 05:34:12 10° NNW visible
05 Aug 4.9 04:27:30 10° SE 04:31:57 44° ENE 04:36:23 10° N visible
06 Aug 6.7 03:32:40 10° E 03:34:39 13° ENE 03:36:38 10° NE visible
06 Aug 3.7 05:06:58 10° S 05:11:38 71° W 05:16:18 10° NNW visible
